CAPE
145 51 56 72 14 3 3 104 143 311 259 289 110 61 194 334 627 631 527 359 239 258 150 39 68 0 0 0 0 0 0 0
190 38 22 3 15 4 42 91 238 359 265 146 77 24 158 529 865 616 546 424 200 249 154 14 42 0 0 0 0 0 0 0
183 178 33 32 46 34 19 39 153 398 433 122 31 112 208 380 631 670 638 528 204 199 76 0 0 0 0 0 0 0 0 0
208 206 237 122 167 224 239 302 387 666 571 301 102 294 443 480 483 510 499 405 127 29 10 13 7 6 0 0 0 0 0 0
263 361 376 300 340 527 412 510 561 827 929 637 220 293 578 614 632 375 255 78 34 21 15 27 41 18 13 11 0 0 0 6
415 429 518 606 522 718 775 560 580 893 1152 1254 715 449 553 810 557 354 266 15 23 42 33 28 41 26 20 12 2 0 21 10
393 502 631 594 732 1015 1196 683 561 671 1250 1042 1009 701 741 840 663 298 70 19 39 63 72 37 50 29 72 31 0 0 4 7
416 419 553 870 1000 1166 1246 832 885 930 1201 1374 879 585 777 856 689 226 85 61 53 93 124 164 120 73 21 3 2 6 3 1
459 352 681 923 1200 1435 1273 1132 1201 1152 1192 1144 587 274 200 529 886 271 102 74 148 161 219 199 65 25 9 27 38 43 1 3
582 469 454 905 1174 1671 2145 1537 1438 1288 1316 683 514 542 477 755 501 289 128 190 207 269 159 80 59 28 42 42 39 9 6 0
307 539 662 754 1067 1353 2308 2060 1720 1509 847 895 505 499 721 690 553 266 190 252 266 292 148 72 85 49 25 30 13 7 9 5
402 343 411 655 963 1243 1532 1992 1929 1624 1374 1049 327 335 392 444 416 271 192 172 164 108 66 63 75 11 9 37 16 12 4 0
533 652 670 678 774 992 1314 1713 1875 1834 1738 959 536 773 611 542 674 542 151 69 51 7 31 37 59 36 8 19 17 12 7 0
497 883 1063 1142 1131 1182 1292 1480 1599 1680 1834 1070 1013 1142 1093 1009 643 377 157 80 44 37 33 44 35 29 30 25 15 6 0 2
241 802 1157 1306 1411 1449 1468 1546 1562 1550 1535 1469 1205 789 849 438 217 95 111 97 61 83 49 36 53 26 34 25 10 19 0 0
55 707 1077 1207 1241 1195 1239 1115 1028 736 576 525 328 275 239 243 200 177 125 71 48 55 54 52 27 29 41 4 5 0 0 0
285 594 946 953 963 977 693 473 520 440 315 310 300 127 33 28 55 81 52 31 21 50 53 41 19 0 4 0 0 0 0 0
307 505 604 584 431 335 474 497 294 202 99 27 17 6 0 0 0 0 0 3 4 5 7 2 16 4 8 0 0 0 0 0
5 8 2 36 108 143 111 46 5 0 0 0 0 0 0 0 0 0 0 0 0 1 3 5 7 3 0 0 0 0 0 0
CIN
-27 -71 -55 -28 -50 -0 -0 -0 -18 -3 -5 -2 -1 -4 -0 -0 -0 -0 -0 -0 -16 -12 -0 -27 -2 -0 -0 -0 -0 -0 -0 -0
-9 -75 -79 -62 -0 -0 -2 -0 -0 -0 -0 -0 -0 -28 -0 -0 -0 -0 -0 -0 -22 -11 -0 -31 -3 -0 -0 -0 -0 -0 -0 -0
-39 -33 -87 -76 -51 -46 -49 -23 -0 -0 -0 -2 -32 -5 -1 -0 -0 -0 -0 -0 -16 -10 -15 -0 -0 -0 -0 -0 -0 -0 -0 -0
-33 -42 -45 -71 -49 -27 -15 -4 -1 -0 -0 -1 -10 -0 -1 -0 -0 -0 -0 -0 -24 -46 -3 -5 -16 -5 -0 -0 -0 -0 -0 -0
-16 -31 -38 -69 -65 -15 -24 -11 -2 -0 -1 -1 -4 -1 -0 -0 -0 -1 -8 -55 -32 -27 -24 -23 -12 -5 -8 -2 -0 -0 -0 -1
-2 -21 -32 -37 -45 -33 -22 -26 -6 -0 -10 -1 -0 -0 -0 -1 -0 -6 -18 -50 -31 -33 -19 -22 -8 -3 -2 -0 -0 -0 -1 -2
-2 -0 -6 -33 -32 -24 -13 -24 -21 -0 -3 -5 -1 -0 -0 -4 -0 -22 -59 -20 -13 -3 -1 -10 -3 -1 -0 -0 -0 -0 -0 -0
-8 -1 -0 -0 -15 -20 -11 -29 -13 -0 -1 -0 -66 -109 -17 -1 -2 -36 -49 -52 -52 -12 -1 -0 -0 -0 -0 -2 -9 -17 -4 -0
-5 -3 -0 -0 -0 -5 -19 -30 -11 -20 -8 -50 -46 -161 -85 -17 -0 -40 -34 -46 -12 -8 -0 -0 -0 -0 -0 -3 -1 -0 -0 -0
-0 -2 -1 -0 -0 -0 -0 -9 -17 -36 -28 -87 -127 -164 -86 -20 -23 -31 -17 -12 -11 -9 -0 -0 -2 -0 -0 -0 -0 -0 -1 -0
-11 -3 -1 -1 -0 -0 -0 -0 -0 -25 -118 -42 -154 -124 -49 -24 -10 -53 -49 -39 -16 -3 -1 -1 -0 -0 -1 -0 -5 -3 -0 -0
-36 -46 -44 -28 -5 -0 -0 -0 -0 -6 -40 -24 -74 -109 -84 -46 -36 -47 -67 -42 -46 -22 -6 -3 -0 -4 -3 -0 -1 -0 -0 -0
-19 -39 -60 -63 -65 -48 -19 -17 -1 -0 -2 -42 -73 -24 -43 -50 -27 -24 -65 -60 -48 -50 -20 -11 -0 -0 -13 -2 -0 -0 -1 -0
-17 -32 -52 -55 -71 -67 -44 -37 -13 -0 -1 -17 -17 -3 -6 -5 -28 -38 -57 -39 -32 -19 -19 -5 -17 -2 -3 -0 -0 -1 -0 -0
-10 -12 -30 -44 -50 -53 -41 -36 -14 -1 -0 -0 -0 -41 -32 -66 -80 -56 -40 -26 -27 -11 -2 -0 -0 -3 -0 -1 -0 -0 -0 -0
-38 -19 -43 -77 -82 -84 -66 -92 -82 -105 -83 -84 -96 -61 -80 -57 -49 -31 -20 -28 -17 -2 -2 -0 -0 -0 -0 -3 -0 -0 -0 -0
-59 -43 -52 -84 -99 -88 -140 -177 -107 -104 -105 -74 -58 -49 -36 -105 -72 -41 -53 -14 -10 -0 -0 -0 -3 -0 -2 -0 -0 -0 -0 -0
-92 -103 -125 -142 -176 -190 -101 -83 -62 -40 -42 -29 -26 -18 -0 -0 -0 -0 -0 -0 -0 -0 -0 -0 -0 -3 -4 -0 -0 -0 -0 -0
-85 -105 -131 -153 -116 -82 -62 -46 -19 -5 -0 -0 -0 -0 -0 -0 -0 -0 -0 -0 -0 -0 -0 -0 -0 -0 -0 -0 -0 -0 -0 -0
Wind_Speed
9 nan nan nan nan nan nan 10 14 10 10 12 7 nan 7 8 4 2 4 5 9 4 8 nan nan nan nan nan nan nan nan nan
10 nan nan nan nan nan nan nan 14 8 5 5 nan nan 2 3 3 0 9 6 7 9 14 nan nan nan nan nan nan nan nan nan
16 16 nan nan nan nan nan nan 12 9 7 6 nan 8 7 6 9 8 6 7 9 12 nan nan nan nan nan nan nan nan nan nan
18 18 20 18 17 17 15 15 12 10 9 9 8 7 9 10 8 9 7 9 12 nan nan nan nan nan nan nan nan nan nan nan
16 19 21 20 16 17 21 20 20 15 11 10 12 11 10 10 9 12 14 nan nan nan nan nan nan nan nan nan nan nan nan nan
16 16 15 17 20 19 20 22 22 24 27 18 22 16 15 16 15 14 15 nan nan nan nan nan nan nan nan nan nan nan nan nan
19 18 19 16 18 20 22 23 24 22 27 26 21 20 24 22 20 21 nan nan nan nan nan nan nan nan nan nan nan nan nan nan
23 23 23 26 27 27 27 28 29 28 29 25 36 43 20 23 22 18 nan nan nan nan 35 36 36 nan nan nan nan nan nan nan
24 23 23 22 25 29 29 31 30 27 29 40 31 40 9 7 16 18 20 nan 29 35 34 34 nan nan nan nan nan nan nan nan
22 19 21 25 29 33 34 33 33 38 28 31 31 27 31 24 25 24 23 31 33 36 35 nan nan nan nan nan nan nan nan nan
12 11 13 21 25 31 35 33 32 32 34 26 27 24 28 28 28 27 38 30 33 37 39 nan nan nan nan nan nan nan nan nan
18 16 15 13 18 28 29 26 27 33 30 32 29 32 33 33 29 35 37 35 39 40 nan nan nan nan nan nan nan nan nan nan
25 21 21 22 22 25 28 26 26 31 36 36 33 33 35 35 36 40 40 nan nan nan nan nan nan nan nan nan nan nan nan nan
26 28 29 30 33 33 32 31 30 31 42 38 37 38 37 39 40 40 42 nan nan nan nan nan nan nan nan nan nan nan nan nan
20 26 29 33 35 35 38 39 36 36 38 38 44 40 40 39 41 nan 45 nan nan nan nan nan nan nan nan nan nan nan nan nan
nan 26 31 35 34 33 38 37 39 39 38 38 42 41 41 40 41 44 45 nan nan nan nan nan nan nan nan nan nan nan nan nan
24 27 33 35 37 37 38 37 39 37 39 41 42 41 nan nan nan nan nan nan nan nan nan nan nan nan nan nan nan nan nan nan
34 36 37 38 41 41 41 40 39 42 nan nan nan nan nan nan nan nan nan nan nan nan nan nan nan nan nan nan nan nan nan nan
nan nan nan nan 45 46 45 nan nan nan nan nan nan nan nan nan nan nan nan nan nan nan nan nan nan nan nan nan nan nan nan nan
Wind_Direction
39 nan nan nan nan nan nan 23 43 50 73 83 93 nan 112 136 194 130 272 272 298 272 258 nan nan nan nan nan nan nan nan nan
358 nan nan nan nan nan nan nan 32 43 90 89 nan nan 310 217 206 222 296 284 279 262 260 nan nan nan nan nan nan nan nan nan
341 351 nan nan nan nan nan nan 25 20 6 348 nan 297 286 274 264 242 233 245 263 276 nan nan nan nan nan nan nan nan nan nan
348 348 349 354 358 357 358 8 351 338 7 322 322 299 249 230 215 251 261 287 296 nan nan nan nan nan nan nan nan nan nan nan
355 352 349 347 352 347 355 356 345 328 336 310 326 308 283 250 229 246 255 nan nan nan nan nan nan nan nan nan nan nan nan nan
356 354 351 348 347 343 344 349 350 341 329 325 313 312 283 265 257 262 280 nan nan nan nan nan nan nan nan nan nan nan nan nan
352 341 335 334 330 332 329 338 338 336 318 317 296 289 289 254 261 258 nan nan nan nan nan nan nan nan nan nan nan nan nan nan
339 337 338 333 331 325 322 336 342 340 310 322 307 311 287 274 253 277 nan nan nan nan 301 300 301 nan nan nan nan nan nan nan
335 335 338 336 335 332 329 331 333 322 311 313 320 316 328 20 345 310 316 nan 304 299 301 305 nan nan nan nan nan nan nan nan
322 334 328 332 331 333 331 332 333 329 318 312 327 323 357 353 323 317 311 297 298 307 311 nan nan nan nan nan nan nan nan nan
261 298 324 329 327 321 320 330 328 319 313 325 307 330 335 333 322 319 309 309 317 311 308 nan nan nan nan nan nan nan nan nan
263 262 270 281 304 311 313 315 315 311 318 318 317 322 322 317 316 309 314 318 313 310 nan nan nan nan nan nan nan nan nan nan
264 263 264 270 281 288 294 299 305 307 306 313 319 312 310 311 309 306 308 nan nan nan nan nan nan nan nan nan nan nan nan nan
271 270 270 272 278 279 282 288 293 295 301 302 302 301 299 300 302 302 309 nan nan nan nan nan nan nan nan nan nan nan nan nan
271 276 274 269 268 270 272 274 277 282 284 289 286 287 291 294 296 nan 300 nan nan nan nan nan nan nan nan nan nan nan nan nan
nan 285 284 279 274 274 274 272 271 273 280 284 284 288 295 295 296 299 301 nan nan nan nan nan nan nan nan nan nan nan nan nan
274 281 284 281 281 276 272 271 273 277 280 283 285 289 nan nan nan nan nan nan nan nan nan nan nan nan nan nan nan nan nan nan
279 280 280 278 277 279 279 279 280 280 nan nan nan nan nan nan nan nan nan nan nan nan nan nan nan nan nan nan nan nan nan nan
nan nan nan nan 273 274 276 nan nan nan nan nan nan nan nan nan nan nan nan nan nan nan nan nan nan nan nan nan nan nan nan nan